KI4LFI Weather Reports


Display with metric or nautical units.
time (UTC)temp
F
wind
direction
speed
MPH
gust
MPH
rain 1hr
in
rain 24hr
in
rain mn
in
humidity
%
barometer
mb
20210917171613 81 63 0.0 3.0 0.00 0.04 0.00 92 1019.1
20210917170048 80 116 1.0 4.0 0.00 0.04 0.00 91 1019.4
20210917164604 79 81 1.0 5.0 0.00 0.04 0.00 92 1019.4
20210917163116 80 82 2.0 6.0 0.00 0.04 0.00 91 1019.4
20210917161602 80 103 2.0 6.0 0.00 0.04 0.00 91 1019.4
20210917160103 79 110 2.0 5.0 0.00 0.04 0.00 92 1019.1
20210917154559 79 0 0.0 7.0 0.00 0.04 0.00 94 1019.2
20210917153100 78 115 1.0 3.0 0.00 0.04 0.00 94 1019.2
20210917151616 78 106 1.0 6.0 0.00 0.04 0.00 94 1019.1
20210917150038 78 0 0.0 6.0 0.00 0.04 0.00 95 1019.2
20210917144622 78 131 1.0 5.0 0.00 0.04 0.00 96 1019.1
20210917143050 77 0 0.0 3.0 0.00 0.04 0.00 97 1018.9
20210917141609 76 96 1.0 2.0 0.00 0.04 0.00 97 1018.6
20210917140241 76 128 1.0 3.0 0.00 0.04 0.00 98 1018.6
20210917134558 76 117 0.0 5.0 0.00 0.04 0.00 98 1018.5
20210917133140 76 0 0.0 2.0 0.00 0.04 0.00 98 1018.0
20210917131557 76 349 0.0 2.0 0.00 0.04 0.00 98 1018.1
20210917130038 75 330 1.0 4.0 0.00 0.04 0.00 99 1018.1
20210917124623 75 0 0.0 3.0 0.00 0.04 0.00 99 1017.9
20210917123102 74 0 0.0 1.0 0.00 0.04 0.00 99 1017.6
20210917121548 74 115 0.0 1.0 0.00 0.04 0.00 99 1017.6
20210917120122 74 0 0.0 1.0 0.00 0.04 0.00 99 1017.7
20210917114552 74 75 0.0 3.0 0.00 0.04 0.00 99 1017.6
20210917113113 74 313 0.0 3.0 0.00 0.04 0.00 99 1017.5
20210917111612 74 0 0.0 1.0 0.00 0.04 0.00 99 1017.4
20210917110112 74 0 0.0 2.0 0.00 0.04 0.00 99 1017.1
20210917104718 74 0 0.0 1.0 0.00 0.04 0.00 99 1017.0
20210917103137 74 0 0.0 1.0 0.00 0.04 0.00 99 1016.6
20210917101629 74 0 0.0 1.0 0.00 0.04 0.00 99 1016.5
20210917100107 74 0 0.0 3.0 0.00 0.04 0.00 99 1016.4
20210917094601 74 0 0.0 2.0 0.00 0.05 0.00 99 1016.3
20210917093041 74 212 0.0 3.0 0.00 0.05 0.00 99 1016.0
20210917091550 74 98 0.0 4.0 0.00 0.05 0.00 98 1015.9
20210917090058 74 148 1.0 4.0 0.00 0.05 0.00 98 1015.6
20210917084622 74 129 1.0 5.0 0.00 0.13 0.00 98 1015.6
20210917083041 74 149 1.0 3.0 0.00 0.13 0.00 98 1015.6
20210917081612 74 150 2.0 5.0 0.00 0.13 0.00 99 1015.6
20210917080043 74 0 1.0 3.0 0.00 0.13 0.00 99 1015.4
20210917074627 74 77 1.0 2.0 0.00 0.22 0.00 99 1015.4
20210917073049 74 108 1.0 4.0 0.00 0.22 0.00 99 1015.5
20210917071550 74 118 0.0 2.0 0.00 0.22 0.00 99 1015.6
20210917070126 74 0 0.0 1.0 0.00 0.22 0.00 98 1015.8
20210917064557 74 103 0.0 1.0 0.00 0.22 0.00 99 1015.8
20210917063036 75 0 0.0 2.0 0.00 0.22 0.00 99 1015.9
20210917061605 75 113 0.0 2.0 0.00 0.22 0.00 99 1016.1
20210917060039 75 77 0.0 2.0 0.00 0.22 0.00 99 1016.3
20210917054622 75 120 0.0 1.0 0.00 0.22 0.00 99 1016.1
20210917053147 74 24 0.0 3.0 0.00 0.22 0.00 99 1016.1
20210917051605 75 83 0.0 4.0 0.00 0.22 0.00 100 1016.1
20210917050112 74 0 0.0 2.0 0.00 0.22 0.00 99 1016.1
20210917044551 74 0 0.0 1.0 0.00 0.23 0.22 99 1016.1
20210917043054 74 0 0.0 1.0 0.00 0.23 0.22 99 1016.0
20210917041640 74 0 0.0 1.0 0.00 0.23 0.22 99 1016.3
20210917040040 74 0 0.0 1.0 0.00 0.23 0.22 99 1016.1
20210917034542 74 0 0.0 1.0 0.00 0.23 0.22 99 1016.1
20210917033117 74 0 0.0 2.0 0.00 0.23 0.22 99 1015.9
20210917031606 73 93 0.0 2.0 0.00 0.23 0.22 99 1015.7
20210917030054 73 0 0.0 1.0 0.00 0.23 0.22 99 1015.5
20210917024609 73 0 0.0 1.0 0.00 0.24 0.22 99 1015.6
20210917023110 73 0 0.0 1.0 0.00 0.24 0.22 98 1015.6
20210917021628 73 0 0.0 0.0 0.00 0.24 0.22 98 1015.7
20210917020050 74 0 0.0 0.0 0.00 0.24 0.22 98 1015.8
20210917014557 74 0 0.0 0.0 0.00 0.31 0.22 97 1015.7
20210917013110 74 163 0.0 0.0 0.00 0.31 0.22 96 1015.6
20210917011552 75 0 0.0 2.0 0.00 0.31 0.22 97 1015.4
20210917010041 75 0 0.0 2.0 0.00 0.31 0.22 97 1015.3
20210917004543 75 211 0.0 1.0 0.00 0.39 0.22 97 1015.2
20210917003057 75 0 0.0 2.0 0.00 0.39 0.22 97 1015.0
20210917001551 76 0 0.0 1.0 0.00 0.39 0.22 96 1014.8
20210917000123 76 0 0.0 1.0 0.00 0.39 0.22 96 1014.5
20210916234653 77 0 0.0 0.0 0.00 0.46 0.22 97 1014.1
20210916233114 77 150 0.0 1.0 0.00 0.46 0.22 96 1014.2
20210916231551 78 0 0.0 1.0 0.00 0.46 0.22 94 1014.1
20210916230054 79 246 0.0 3.0 0.00 0.46 0.22 94 1013.8
20210916224610 79 0 0.0 2.0 0.00 0.51 0.22 95 1013.7
20210916223057 79 0 1.0 3.0 0.00 0.51 0.22 96 1013.7
20210916221609 80 127 0.0 4.0 0.00 0.51 0.22 93 1013.6
20210916220119 80 0 0.0 3.0 0.00 0.51 0.22 93 1013.3
20210916214605 80 117 1.0 4.0 0.00 0.55 0.22 92 1013.2
20210916213136 78 148 0.0 1.0 0.01 0.55 0.22 95 1013.0
20210916211550 77 0 0.0 1.0 0.04 0.55 0.22 95 1012.8
20210916210112 77 0 0.0 1.0 0.04 0.55 0.22 95 1012.8
20210916204601 77 0 0.0 3.0 0.04 0.56 0.22 94 1012.7
20210916203042 77 121 1.0 3.0 0.03 0.55 0.21 93 1012.7
20210916201618 78 276 1.0 4.0 0.00 0.52 0.18 92 1013.1
20210916200058 81 115 4.0 14.0 0.00 0.52 0.18 85 1013.0
20210916194642 86 45 3.0 8.0 0.00 0.52 0.18 76 1012.9
20210916193134 85 148 2.0 4.0 0.00 0.52 0.18 78 1012.9
20210916191546 84 120 1.0 5.0 0.00 0.52 0.18 83 1013.3
20210916190106 85 193 2.0 5.0 0.00 0.52 0.18 80 1013.3
20210916184611 85 168 1.0 5.0 0.00 0.54 0.18 80 1013.3
20210916183054 84 98 0.0 5.0 0.00 0.54 0.18 82 1013.5
20210916181600 83 148 2.0 5.0 0.00 0.54 0.18 81 1013.7
20210916180223 83 75 2.0 5.0 0.00 0.54 0.18 84 1013.9
20210916174549 84 136 1.0 5.0 0.00 0.67 0.18 80 1013.9
20210916173048 84 94 2.0 4.0 0.00 0.67 0.18 82 1014.4